EW6887 Weather Reports


time (UTC)temp
C
wind
direction
speed
KPH
gust
KPH
rain 1hr
cm
rain 24hr
cm
rain mn
cm
humidity
%
barometer
mb
20260505073058 18 22 0.0 0.0 0.00 0.00 0.00 42 1007.6
20260505071547 17 348 0.0 0.0 0.00 0.00 0.00 43 1007.6
20260505070042 17 360 0.0 0.0 0.00 0.00 0.00 44 1007.5
20260505064544 17 299 0.0 0.0 0.00 0.00 0.00 44 1007.3
20260505063027 17 342 0.0 0.0 0.00 0.00 0.00 44 1007.3
20260505061519 17 338 0.0 0.0 0.00 0.00 0.00 45 1007.2
20260505060014 16 320 0.0 0.0 0.00 0.00 0.00 45 1007.2
20260505054516 16 360 0.0 0.0 0.00 0.00 0.00 44 1007.2
20260505053100 16 333 0.0 0.0 0.00 0.00 0.00 45 1007.2
20260505051552 16 321 0.0 0.0 0.00 0.00 0.00 45 1007.3
20260505041530 15 305 0.0 0.0 0.00 0.00 0.00 47 1007.7
20260505040021 15 308 0.0 0.0 0.00 0.00 0.00 46 1007.7
20260505034519 14 321 0.0 0.0 0.00 0.00 0.00 50 1007.8
20260505033003 13 304 0.0 0.0 0.00 0.00 0.00 56 1008.0
20260505031558 13 315 0.0 0.0 0.00 0.00 0.00 57 1008.1
20260505030036 13 309 0.0 0.0 0.00 0.00 0.00 59 1008.2
20260505024515 12 305 0.0 0.0 0.00 0.00 0.00 58 1008.3
20260505023059 12 309 0.0 0.0 0.00 0.00 0.00 60 1008.6
20260505021550 13 5 0.0 0.0 0.00 0.00 0.00 59 1008.9
20260505020053 13 5 0.0 0.0 0.00 0.00 0.00 57 1009.1
20260505014537 15 5 0.0 0.0 0.00 0.00 0.00 56 1009.3
20260505013020 15 329 0.0 0.0 0.00 0.00 0.00 53 1009.4
20260505011512 15 11 0.0 0.0 0.00 0.00 0.00 52 1009.5
20260505010005 15 333 0.0 0.0 0.00 0.00 0.00 51 1009.3
20260505004631 16 331 0.0 0.0 0.00 0.00 0.00 50 1009.2
20260505003052 16 331 0.0 0.0 0.00 0.00 0.00 50 1009.3
20260505001545 16 332 0.0 0.0 0.00 0.00 0.00 50 1009.4
20260505000038 16 332 0.0 0.0 0.00 0.00 0.00 50 1009.5
20260504234529 16 309 0.0 0.0 0.00 0.00 0.00 50 1009.7
20260504233022 16 298 0.0 0.0 0.00 0.00 0.00 51 1009.8
20260504231511 16 288 0.0 0.0 0.00 0.00 0.00 52 1009.8
20260504230005 16 266 0.0 0.0 0.00 0.00 0.00 54 1009.9
20260504224611 16 265 0.0 0.0 0.00 0.00 0.00 56 1010.1
20260504223050 16 254 0.0 0.0 0.00 0.00 0.00 56 1010.2
20260504221629 15 250 0.0 0.0 0.00 0.00 0.00 58 1010.2
20260504220045 15 238 0.0 0.0 0.00 0.00 0.00 61 1010.4
20260504214537 16 238 0.0 0.0 0.00 0.00 0.00 62 1010.5
20260504213036 16 238 0.0 0.0 0.00 0.00 0.00 61 1010.7
20260504211517 16 239 0.0 0.0 0.00 0.00 0.00 59 1010.6
20260504210011 17 239 0.0 0.0 0.00 0.00 0.00 60 1010.6
20260504204503 17 239 0.0 0.0 0.00 0.00 0.00 60 1010.7
20260504203052 17 239 0.0 0.0 0.00 0.00 0.00 61 1010.6
20260504201546 17 227 0.0 0.0 0.00 0.00 0.00 61 1010.6
20260504200040 17 224 0.0 0.0 0.00 0.00 0.00 61 1010.6
20260504194531 17 224 0.0 0.0 0.00 0.00 0.00 61 1010.6
20260504193021 18 224 0.0 0.0 0.00 0.00 0.00 60 1010.6
20260504191511 18 211 0.0 0.0 0.00 0.00 0.00 59 1010.6
20260504190001 19 146 0.0 0.0 0.00 0.00 0.00 55 1010.5
20260504184600 20 146 0.0 0.0 0.00 0.00 0.00 53 1010.4
20260504183143 21 146 0.0 0.0 0.00 0.00 0.00 50 1010.2
20260504181533 21 146 0.0 0.0 0.00 0.00 0.00 48 1010.1
20260504180027 22 146 0.0 0.0 0.00 0.00 0.00 46 1010.1
20260504174513 22 99 0.0 0.0 0.00 0.00 0.00 45 1010.0
20260504173012 23 74 0.0 0.0 0.00 0.00 0.00 43 1009.9
20260504171556 23 74 0.0 0.0 0.00 0.00 0.00 42 1009.9
20260504081525 18 331 0.0 0.0 0.00 0.00 0.00 48 1012.9